Regional Weather Roundup
Issued by NWS

Home | Current Version | Previous Version | Graphics & Text | Print | Product List | Glossary On
Versions: 1 2 3 4 5 6 7 8 9 10 11 12 13 14 15 16 17 18 19 20 21 22 23 24 25 26 27 28 29 30 31 32 33 34 35 36 37 38 39 40 41 42 43 44 45 46 47 48 49 50
904
ASUS43 KMKX 261621
RWRWI

WISCONSIN REGIONAL WEATHER ROUNDUP
NATIONAL WEATHER SERVICE MILWAUKEE/SULLIVAN WI
1100 AM CDT WED APR 26 2017

NOTE: "FAIR" INDICATES FEW OR NO CLOUDS BELOW 12,000 FEET WITH NO
SIGNIFICANT WEATHER AND/OR OBSTRUCTIONS TO VISIBILITY.

WIZ001-002-006>008-014>016-023>028-261700-
NORTHWEST WISCONSIN

CITY           SKY/WX    TMP DP  RH WIND       PRES   REMARKS
SUPERIOR ARPT  CLOUDY    33  31  96 NE17G26   29.60R FOG     WCI  21
ASHLAND        MIX PCPN  32  31  96 NE18G28   29.55F FOG     WCI  20
HAYWARD        FRZ RAIN  32  30  92 NE15      29.50R FOG     WCI  22
SIREN          LGT RAIN  34  33  94 NE12G20   29.52R WCI  26
CUMBERLAND     RAIN      32  32 100 N14       29.46S WCI  22
RICE LAKE      LGT RAIN  35  34  94 N10G20    29.47R WCI  28
CHETEK         LGT RAIN  37  37  99 N6        29.45R WCI  32
LADYSMITH      HVY RAIN  37  36  96 N10       29.45S WCI  30
EAU CLAIRE     LGT RAIN  39  38  96 N8        29.41S WCI  33
MENOMONIE      DRIZZLE   38  38 100 NW13      29.44S WCI  30
NEW RICHMOND   LGT RAIN  36  36  99 N14       29.48S WCI  27
OSCEOLA        LGT RAIN  37  37 100 N13       29.53S WCI  28
$$

WIZ003>005-009-010-017-018-261700-
NORTH CENTRAL WISCONSIN

CITY           SKY/WX    TMP DP  RH WIND       PRES   REMARKS
MANITOWISH WTR DRIZZLE   34  34 100 N7        29.43F WCI  28
ARBOR VITAE    RAIN      39  38  95 NE6       29.41F WCI  35
WOODRUFF       RAIN      39  38  95 NE6       29.41F WCI  35
RHINELANDER    LGT RAIN  49  49 100 NE5       29.39F
EAGLE RIVER    LGT RAIN  41  41 100 NE8       29.41F
LAND O LAKES   RAIN      37  37 100 NE6       29.45F WCI  33
PHILLIPS       RAIN      36  36 100 N9G16     29.43R WCI  29
TOMAHAWK       DRIZZLE   48  47  97 N3        29.38F
MEDFORD        LGT RAIN  49  48  97 N7        29.37S
MERRILL        RAIN      53  53 100 E6        29.37F
$$

WIZ029-030-035-036-043>047-261700-
CENTRAL WISCONSIN

CITY           SKY/WX    TMP DP  RH WIND       PRES   REMARKS
WAUSAU         HVY RAIN  54  53  97 SE6       29.35S FOG
MOSINEE        RAIN      54  54 100 E7        29.36F
MARSHFIELD     LGT RAIN  56  54  93 E5        29.35S FOG
STEVENS POINT  RAIN      55  55 100 S3        29.37S
WAUPACA        LGT RAIN  59  58  97 E3        29.37S
WAUTOMA        RAIN      59  57  94 MISG        N/A
WISC RAPIDS    LGT RAIN  59  58  96 S6        29.37R FOG
CAMP DOUGLAS   LGT RAIN  61  59  94 S6        29.37R
$$

WIZ011>013-019>022-031-037>040-048>050-261700-
NORTHEAST WISCONSIN

CITY           SKY/WX    TMP DP  RH WIND       PRES   REMARKS
ANTIGO         CLOUDY    51  51 100 E6        29.38F FOG
SHAWANO        CLOUDY    56  54  91 E7        29.38F
OCONTO         PTSUNNY   62  54  75 SE6       29.39F
STURGEON BAY   FAIR      58  52  80 S21G30    29.40F
GREEN BAY      CLOUDY    64  58  80 S10       29.39S
MANITOWOC      CLOUDY    52  47  83 SE10      29.40F
APPLETON       LGT RAIN  63  54  72 S8        29.37F
CLINTONVILLE   LGT RAIN  54  54 100 NE5       29.37S
OSHKOSH        LGT RAIN  63  57  81 S8        29.36F
$$

WIZ032>034-041-042-053>061-261700-
SOUTHWEST WISCONSIN

CITY           SKY/WX    TMP DP  RH WIND       PRES   REMARKS
LA CROSSE      CLOUDY    55  53  93 NW14      29.37R
SPARTA         DRIZZLE   56  56 100 CALM      29.37R
VIROQUA        CLOUDY    57  57  97 SW9       29.40R
BOSCOBEL       LGT RAIN  61  58  90 SW8       29.40R
PRAIRIE DU CHI DRIZZLE   56  53  89 SW8       29.43R
PLATTEVILLE    PTSUNNY   58  58 100 SW12      29.43R
$$

WIZ056-057-062-063-064-067-068-261700-
SOUTH CENTRAL WISCONSIN

CITY           SKY/WX    TMP DP  RH WIND       PRES   REMARKS
REEDSBURG      LGT RAIN  59  59 100 SW5       29.38S
BARABOO/DELLS  LGT RAIN  59  56  91 S7        29.38R
LONE ROCK      LGT RAIN  61  58  90 SW8       29.40R FOG
MINERAL POINT  CLOUDY    59  59 100 SW8       29.41R
MADISON        LGT RAIN  59  57  93 SW6       29.40R FOG
MIDDLETON      CLOUDY    60  58  95 S7        29.41R
WATERTOWN      LGT RAIN  59  59 100 S10       29.40R
MONROE         CLOUDY    59  57  94 S13       29.43R
JANESVILLE     LGT RAIN  61  61 100 S14       29.43R FOG
$$

WIZ051-052-058>065-066-070>072-261700-
SOUTHEAST WISCONSIN

CITY           SKY/WX    TMP DP  RH WIND       PRES   REMARKS
MILWAUKEE      TSTM      63  59  87 SW10G18   29.42R FOG
WAUKESHA       LGT RAIN  57  57 100 S12       29.42S
MILWAUKEE/TIMM LGT RAIN  61  57  88 S8        29.43R
RACINE         LGT RAIN  58  52  80 S5        29.43R
KENOSHA        LGT RAIN  67  57  70 SW12      29.43R
FOND DU LAC    RAIN      63  56  78 S9        29.37F
SHEBOYGAN      LGT RAIN  55  51  86 SE7       29.39F FOG
WEST BEND      LGT RAIN  63  59  88 SE6       29.39F
JUNEAU         CLOUDY    59  57  92 S12       29.41R
$$

LSZ147-162-261700-
LAKE SUPERIOR

STATION/POSITION TIME  TEMP    WIND        PRES    WAVE
                       AIR SEA DIR/SP/G            HT/PER
                 (UTC) (F)     (DEG/KT/KT) (MB)    (FT/S)
DEVILS ISLAND    1600   32      40/ 30/ 34 1002.6F
PORT WING        1530   33      40/ 35/ 43 1002.0S
SAXON HARBOR     1530   34      40/ 28/ 33 1000.0F
$$

LMZ867-665-643>646-261700-
LAKE MICHIGAN

STATION/POSITION TIME  TEMP    WIND        PRES    WAVE
                       AIR SEA DIR/SP/G            HT/PER
                 (UTC) (F)     (DEG/KT/KT) (MB)    (FT/S)
CHAMBERS ISLAND  1540   46     320/  5/ 10  996.6F
N MID LAKE BUOY  1550   44 37  100/  8/ 10  998.4F   2/ 5
NORTHPORT PIER   1540   47     140/  5/  8  997.3F
KEWAUNEE LAKESHO 1554   48     170/  8/  9  995.8F
SHEBOYGAN LAKESH 1600   45     170/ 11/ 12  995.9F
PORT WASHINGTON  1600   47     120/  4/ 10  996.6
MILWAUKEE LAKESH 1600   50     170/  8/ 10   N/A
S MID LAKE BUOY  1550   49 41  120/ 10/ 12  997.0F   2/ 4
KENOSHA   LAKESH 1600   52     180/  9/ 14  997.0
$$

TC  - TEMPERATURE IN CELSIUS
VSB - VISIBILITY IN STATUTE MILES
WCI - WIND CHILL INDEX
HX  - HEAT INDEX





USA.gov is the U.S. government's official web portal to all federal, state and local government web resources and services.